User: anonymous   Login
Location: Carri�res
(48.9069°N, 2.1792°E)
Time: 10:34:54
(UTC+00:00)
Language:

Meteor 2-5 Rocket - Orbit

View from above orbital plane
View from above orbital plane
View from above satellite
View from above satellite

Ground track
Ground track

The orbit data is extracted from the following two-line orbital elements,

1 11608U 79095B   21100.82842378  .00000009  00000-0 -19834-5 0  9992
2 11608  81.2106 298.5359 0053831 206.1398 153.7052 14.06172394125699
Epoch (UTC): 10 April 2021 19:52:55
Eccentricity: 0.0053831
inclination: 81.2106°
perigee height: 833 km
apogee height: 911 km
right ascension of ascending node: 298.5359°
argument of perigee: 206.1398°
revolutions per day: 14.06172394
mean anomaly at epoch: 153.7052°
orbit number at epoch: 12569

The dashed part of the orbit path shows where the satellite is in the earth's shadow,  

DLR